Location: Alsip
(41.6689°N, 87.7387°W)
Time: 14:51:39
(UTC+00:00)

XW-2B - Pass Details

Date: 28 October 2021
Orbit: 504 x 522 km, 97.5° (Epoch: 04 December)

Event Time Altitude Azimuth Distance (km) Brightness Sun altitude
Rises 23:17:22 0° 176° (S) 2,604 ? -5.7°
Reaches altitude 10° 23:19:29 10° 181° (S) 1,721 ? -6.1°
Maximum altitude 23:23:07 55° 260° (W) 618 ? -6.8°
Drops below altitude 10° 23:26:47 10° 339° (NNW) 1,728 ? -7.4°
Sets 23:28:54 0° 344° (NNW) 2,616 ? -7.8°
